Ignacio, CO

6:53 AM MST on February 26, 2017 (GMT -0700)
Durango-La Plata County

Weather History for KDRO - October, 2013

Change the Weather History Date:

Thursday, October 3, 2013

  Actual Average Record
Temperature  
Mean Temperature 50 °F 52 °F  
Max Temperature 67 °F 69 °F 83 °F (1980)
Min Temperature 32 °F 36 °F 25 °F (1971)
Degree Days  
Heating Degree Days 15 13  
Month to date heating degree days 40 38  
Since 1 July heating degree days 222 262  
Cooling Degree Days 0 0  
Month to date cooling degree days 0 0  
Year to date cooling degree days 388 243  
Moisture  
Dew Point 29 °F    
Average Humidity 50    
Maximum Humidity 76    
Minimum Humidity 24    
Precipitation  
Precipitation 0.00 in 0.05 in 0.95 in (1981)
Month to date precipitation 0.00 0.15  
Year to date precipitation 12.99 12.03  
Sea Level Pressure  
Sea Level Pressure 29.84 in    
Wind  
Wind Speed 7 mph (SSW)    
Max Wind Speed 20 mph    
Max Gust Speed 26 mph    
Visibility 10 miles    
Events      
T = Trace of Precipitation, MM = Missing Value Source: NWS Daily Summary

Daily Weather History Graph

Daily Weather History Graph

Search for Another Location

Airport or City:

Trip Planner

Search our weather history database for the weather conditions in past years. The results will help you decide how hot, cold, wet, or windy it might be!

Date:

Astronomy

Oct. 03, 2013 Rise Set
Actual Time 7:08 AM MDT 6:50 PM MDT
Civil Twilight 6:42 AM MDT 7:16 PM MDT
Nautical Twilight 6:12 AM MDT 7:46 PM MDT
Astronomical Twilight 5:41 AM MDT 8:17 PM MDT
Moon 5:46 AM MDT (10/3) 6:00 PM MDT (10/3)
Length of Visible Light 12h 34m
Length of Day
11h 42m
Waning Crescent, 2% of the Moon is Illuminated
Oct 3
Waning Crescent
Oct 4
New
Oct 11
First Quarter
Oct 18
Full
Oct 26
Last Quarter

Hourly Weather History & Observations

Time (MDT) Temp. Windchill Dew Point Humidity Pressure Visibility Wind Dir Wind Speed Gust Speed Precip Events Conditions
12:53 AM 42.1 °F 37.7 °F 28.9 °F 60% 29.90 in 10.0 mi North 6.9 mph - N/A   Clear
1:53 AM 37.0 °F 34.5 °F 28.9 °F 73% 29.90 in 10.0 mi North 3.5 mph - N/A   Clear
2:53 AM 37.9 °F 35.5 °F 28.9 °F 70% 29.91 in 10.0 mi NNE 3.5 mph - N/A   Clear
3:53 AM 35.1 °F - 28.9 °F 78% 29.90 in 10.0 mi Calm Calm - N/A   Clear
4:53 AM 35.1 °F 31.0 °F 28.9 °F 78% 29.90 in 10.0 mi ENE 4.6 mph - N/A   Clear
5:53 AM 35.1 °F 30.1 °F 28.0 °F 76% 29.91 in 10.0 mi NE 5.8 mph - N/A   Clear
6:53 AM 35.1 °F 30.1 °F 28.0 °F 76% 29.94 in 10.0 mi NNE 5.8 mph - N/A   Clear
7:53 AM 37.0 °F - 30.0 °F 76% 29.96 in 10.0 mi Calm Calm - N/A   Clear
8:53 AM 45.0 °F - 30.9 °F 58% 29.97 in 10.0 mi Calm Calm - N/A   Clear
9:53 AM 51.1 °F - 32.0 °F 48% 29.95 in 10.0 mi ESE 6.9 mph - N/A   Clear
10:53 AM 55.9 °F - 32.0 °F 40% 29.92 in 10.0 mi Variable 4.6 mph - N/A   Clear
11:53 AM 60.1 °F - 32.0 °F 35% 29.89 in 10.0 mi Calm Calm - N/A   Clear
12:53 PM 64.0 °F - 28.9 °F 27% 29.85 in 10.0 mi South 10.4 mph - N/A   Clear
1:53 PM 64.9 °F - 28.0 °F 25% 29.83 in 10.0 mi SSW 12.7 mph 16.1 mph N/A   Clear
2:53 PM 66.9 °F - 28.0 °F 23% 29.79 in 10.0 mi WSW 13.8 mph 21.9 mph N/A   Clear
3:53 PM 64.9 °F - 30.0 °F 27% 29.79 in 10.0 mi Variable 6.9 mph - N/A   Clear
4:53 PM 64.9 °F - 32.0 °F 29% 29.75 in 10.0 mi SSW 10.4 mph - N/A   Clear
5:53 PM 64.9 °F - 32.0 °F 29% 29.75 in 10.0 mi SW 5.8 mph - N/A   Mostly Cloudy
6:53 PM 62.1 °F - 28.9 °F 29% 29.74 in 10.0 mi SW 5.8 mph - N/A   Scattered Clouds
7:53 PM 57.9 °F - 30.0 °F 35% 29.75 in 10.0 mi South 3.5 mph - N/A   Scattered Clouds
8:53 PM 57.0 °F - 30.0 °F 36% 29.73 in 10.0 mi SW 5.8 mph - N/A   Clear
10:53 PM 57.0 °F - 26.1 °F 30% 29.68 in 10.0 mi SW 13.8 mph - N/A   Clear
11:53 PM 55.9 °F - 26.1 °F 32% 29.66 in 10.0 mi West 17.3 mph 25.3 mph N/A   Clear